GW2669 Weather Reports


time (UTC)temp
F
wind
direction
speed
knots
gust
knots
rain 1hr
in
rain 24hr
in
rain mn
in
humidity
%
barometer
mb
20260506073050 68 259 3.5 6.1 0.00 0.00 0.00 42 1010.4
20260506071606 68 249 2.6 4.3 0.00 0.00 0.00 43 1010.7
20260506061547 70 0 0.0 0.0 0.00 0.00 0.00 34 1010.5
20260506044605 68 0 0.0 0.9 0.00 0.00 0.00 42 1010.2
20260506043056 69 44 0.0 3.5 0.00 0.00 0.00 40 1010.1
20260506041554 70 155 3.5 7.8 0.00 0.00 0.00 37 1009.6
20260506040054 71 0 0.0 0.0 0.00 0.00 0.00 37 1009.1
20260506034557 68 105 0.0 0.9 0.00 0.00 0.00 44 1008.8
20260506033052 70 0 0.0 2.6 0.00 0.00 0.00 37 1008.8
20260506031557 72 0 0.0 0.9 0.00 0.00 0.00 34 1008.8
20260506030054 72 0 0.0 0.0 0.00 0.00 0.00 33 1008.6
20260506024552 74 146 0.9 1.7 0.00 0.00 0.00 33 1008.5
20260506023055 76 0 0.0 0.0 0.00 0.00 0.00 27 1008.2
20260506021557 77 0 0.0 0.0 0.00 0.00 0.00 25 1008.0
20260506020050 78 0 0.0 0.9 0.00 0.00 0.00 23 1007.9
20260506014547 78 252 0.0 0.9 0.00 0.00 0.00 23 1007.8
20260506013048 80 0 0.0 1.7 0.00 0.00 0.00 24 1007.9
20260506011552 81 164 0.0 0.9 0.00 0.00 0.00 25 1007.8
20260506010057 83 157 0.0 0.9 0.00 0.00 0.00 22 1007.9
20260506004548 84 0 0.0 0.9 0.00 0.00 0.00 20 1007.8
20260506003048 84 225 0.0 0.9 0.00 0.00 0.00 20 1007.8
20260506001604 84 166 0.9 3.5 0.00 0.00 0.00 18 1007.8
20260506000053 84 229 1.7 5.2 0.00 0.00 0.00 18 1007.8
20260505234608 83 284 2.6 8.7 0.00 0.00 0.00 18 1007.8
20260505233049 83 277 3.5 7.0 0.00 0.00 0.00 19 1008.0
20260505231548 83 294 7.0 12.2 0.00 0.00 0.00 18 1008.2
20260505230048 83 294 8.7 14.8 0.00 0.00 0.00 19 1008.2
20260505224547 83 291 10.4 14.8 0.00 0.00 0.00 18 1008.6
20260505223104 83 298 13.0 15.6 0.00 0.00 0.00 18 1008.8
20260505221547 83 298 11.3 21.7 0.00 0.00 0.00 18 1008.8
20260505220050 83 281 12.2 18.2 0.00 0.00 0.00 16 1008.9
20260505214555 83 290 12.2 18.2 0.00 0.00 0.00 18 1009.2
20260505213054 82 294 13.9 20.0 0.00 0.00 0.00 17 1009.3
20260505211605 84 305 11.3 17.4 0.00 0.00 0.00 16 1009.4
20260505210056 84 294 11.3 16.5 0.00 0.00 0.00 18 1009.3
20260505204552 85 298 12.2 19.1 0.00 0.00 0.00 18 1009.6
20260505203116 84 296 12.2 16.5 0.00 0.00 0.00 20 1009.6
20260505201551 84 278 9.6 14.8 0.00 0.00 0.00 22 1009.7
20260505200050 83 291 11.3 17.4 0.00 0.00 0.00 21 1009.8
20260505194554 83 299 9.6 16.5 0.00 0.00 0.00 23 1010.0
20260505193052 83 295 12.2 18.2 0.00 0.00 0.00 23 1009.9
20260505191553 83 300 7.0 15.6 0.00 0.00 0.00 23 1010.0
20260505190051 83 296 12.2 18.2 0.00 0.00 0.00 22 1010.2
20260505184551 83 292 11.3 20.0 0.00 0.00 0.00 22 1010.3
20260505183052 83 297 13.0 18.2 0.00 0.00 0.00 22 1010.5
20260505181553 83 276 8.7 14.8 0.00 0.00 0.00 22 1010.8
20260505180057 83 301 8.7 15.6 0.00 0.00 0.00 23 1010.8
20260505174548 83 288 10.4 19.1 0.00 0.00 0.00 22 1010.8
20260505173052 82 307 12.2 16.5 0.00 0.00 0.00 23 1011.0
20260505171548 81 287 14.8 20.0 0.00 0.00 0.00 23 1011.0
20260505170049 80 304 9.6 15.6 0.00 0.00 0.00 25 1011.1
20260505164550 80 310 7.0 14.8 0.00 0.00 0.00 24 1011.2
20260505163048 79 320 10.4 13.9 0.00 0.00 0.00 24 1011.4
20260505161551 79 265 9.6 15.6 0.00 0.00 0.00 24 1011.6
20260505153055 78 287 9.6 13.0 0.00 0.00 0.00 24 1011.6
20260505151551 77 290 7.0 13.0 0.00 0.00 0.00 25 1011.4
20260505140113 73 302 3.5 7.8 0.00 0.00 0.00 29 1010.8
20260505124559 64 0 0.0 0.0 0.00 0.00 0.00 40 1009.3
20260505123056 64 0 0.0 0.9 0.00 0.00 0.00 43 1009.4
20260505121602 66 0 0.0 2.6 0.00 0.00 0.00 38 1008.9
20260505120105 69 251 0.9 2.6 0.00 0.00 0.00 32 1008.7
20260505114556 70 283 1.7 5.2 0.00 0.00 0.00 31 1008.6
20260505113101 70 277 4.3 7.0 0.00 0.00 0.00 30 1008.6
20260505111551 69 284 3.5 7.0 0.00 0.00 0.00 32 1008.5
20260505101555 70 301 3.5 7.8 0.00 0.00 0.00 32 1008.2
20260505100052 71 288 5.2 7.0 0.00 0.00 0.00 31 1008.3
20260505094558 70 275 3.5 6.1 0.00 0.00 0.00 33 1008.3
20260505093054 67 0 0.0 0.0 0.00 0.00 0.00 39 1008.2
20260505091547 65 0 0.0 0.0 0.00 0.00 0.00 42 1008.2
20260505090057 64 0 0.0 0.0 0.00 0.00 0.00 48 1008.2
20260505084555 67 0 0.0 1.7 0.00 0.00 0.00 40 1008.3
20260505083104 67 256 0.9 3.5 0.00 0.00 0.00 39 1008.5
20260505081558 68 249 2.6 6.1 0.00 0.00 0.00 39 1008.6